Weather in Palaiseau

France     48°43′12″N   2°14′51″E
temp.,
°C
wind,
m/s
gust,
m/s
humid.,
%
clouds,
%
prec.,
mm/h
press.,
hPa
HPBL,
m
7 may, fri
fri723:00+7nw2590100 0.1 1010372
02:00+5wnw259511 0.1 1012206
05:00+4w27910 0.0 1014206
08:00+5wnw26820 0.0 1016201
11:00+11nw24463 0.0 10181229
14:00+14nw23345 0.0 10192031
17:00+15sw2331100 0.0 10182534
20:00+13ssw3445100 0.0 10181124
8 may, sat
sat823:00+10ssw236120 0.0 1018101
02:00+8sse256563 0.0 1017133
05:00+8s396777 0.0 1016298
08:00+9sse4117048 0.0 1015451
11:00+13s5106958 0.0 1013561
14:00+19ssw695544 0.0 10111397
17:00+21ssw69475 0.0 10091635
20:00+19s486028 0.0 1008916
9 may, sun
sun923:00+15sse288084 0.0 1007182
02:00+15se31181100 0.0 1005290
05:00+14sse31481100 0.2 1002338
08:00+14s41288100 0.8 1002420
11:00+19s61261100 0.1 1002994
14:00+24ssw61144100 0.1 10001866
17:00+21sw71361100 0.2 10001415
20:00+15ssw51189100 3.4 1001941
10 may, mon
mon1023:00+14s41191100 0.2 1001613
02:00+13sw4993100 1.9 1002791
05:00+11ssw51292100 0.0 1005840
08:00+11sw61183100 0.0 1007955
11:00+13sw596498 0.0 10081209
14:00+16ssw4749100 0.1 10081982
17:00+16s3464100 0.9 1008946
20:00+13s3686100 2.8 1009225
11 may, tue
tue1123:00+11s3993100 1.2 1010263
02:00+9s279645 1.2 1010224
05:00+9se2497100 0.0 1009142
08:00+10ese1292100 0.0 1009195
11:00+11ne2286100 0.1 1009409
14:00+13e1280100 0.5 1008567
17:00+11wnw3795100 4.6 1008422
20:00+11wnw488996 4.8 1010554